Year,Month,Day,Hour,Minute,Value (Times are PST for temperature in C)
2019,07,09,00,00,14.40
2019,07,09,00,01,14.30
2019,07,09,00,02,14.30
2019,07,09,00,03,14.30
2019,07,09,00,04,14.20
2019,07,09,00,05,14.20
2019,07,09,00,06,14.20
2019,07,09,00,07,14.20
2019,07,09,00,08,14.20
2019,07,09,00,09,14.10
2019,07,09,00,10,14.10
2019,07,09,00,11,14.10
2019,07,09,00,12,14.10
2019,07,09,00,13,14.10
2019,07,09,00,14,14.00
2019,07,09,00,15,14.00
2019,07,09,00,16,14.00
2019,07,09,00,17,13.90
2019,07,09,00,18,13.90
2019,07,09,00,19,13.90
2019,07,09,00,20,13.90
2019,07,09,00,21,13.90
2019,07,09,00,22,13.90
2019,07,09,00,23,13.80
2019,07,09,00,24,13.80
2019,07,09,00,25,13.80
2019,07,09,00,26,13.80
2019,07,09,00,27,13.80
2019,07,09,00,28,13.80
2019,07,09,00,29,13.80
2019,07,09,00,30,13.80
2019,07,09,00,31,13.80
2019,07,09,00,32,13.70
2019,07,09,00,33,13.70
2019,07,09,00,34,13.70
2019,07,09,00,35,13.70
2019,07,09,00,36,13.70
2019,07,09,00,37,13.70
2019,07,09,00,38,13.70
2019,07,09,00,39,13.70
2019,07,09,00,40,13.70
2019,07,09,00,41,13.60
2019,07,09,00,42,13.60
2019,07,09,00,43,13.60
2019,07,09,00,44,13.60
2019,07,09,00,45,13.50
2019,07,09,00,46,13.50
2019,07,09,00,47,13.50
2019,07,09,00,48,13.50
2019,07,09,00,49,13.50
2019,07,09,00,50,13.40
2019,07,09,00,51,13.40
2019,07,09,00,52,13.40
2019,07,09,00,53,13.40
2019,07,09,00,54,13.40
2019,07,09,00,55,13.40
2019,07,09,00,56,13.30
2019,07,09,00,57,13.30
2019,07,09,00,58,13.30
2019,07,09,00,59,13.30
2019,07,09,01,00,13.30
2019,07,09,01,01,13.30
2019,07,09,01,02,13.30
2019,07,09,01,03,13.30
2019,07,09,01,04,13.30
2019,07,09,01,05,13.30
2019,07,09,01,06,13.30
2019,07,09,01,07,13.20
2019,07,09,01,08,13.20
2019,07,09,01,09,13.20
2019,07,09,01,10,13.20
2019,07,09,01,11,13.20
2019,07,09,01,12,13.20
2019,07,09,01,13,13.20
2019,07,09,01,14,13.20
2019,07,09,01,15,13.10
2019,07,09,01,16,13.10
2019,07,09,01,17,13.10
2019,07,09,01,18,13.10
2019,07,09,01,19,13.10
2019,07,09,01,20,13.10
2019,07,09,01,21,13.10
2019,07,09,01,22,13.10
2019,07,09,01,23,13.10
2019,07,09,01,24,13.10
2019,07,09,01,25,13.10
2019,07,09,01,26,13.10
2019,07,09,01,27,13.10
2019,07,09,01,28,13.10
2019,07,09,01,29,13.10
2019,07,09,01,30,13.10
2019,07,09,01,31,13.10
2019,07,09,01,32,13.10
2019,07,09,01,33,13.10
2019,07,09,01,34,13.10
2019,07,09,01,35,13.10
2019,07,09,01,36,13.00
2019,07,09,01,37,13.00
2019,07,09,01,38,13.00
2019,07,09,01,39,13.00
2019,07,09,01,40,13.00
2019,07,09,01,41,13.00
2019,07,09,01,42,13.00
2019,07,09,01,43,13.00
2019,07,09,01,44,13.00
2019,07,09,01,45,13.00
2019,07,09,01,46,13.00
2019,07,09,01,47,13.00
2019,07,09,01,48,13.00
2019,07,09,01,49,13.00
2019,07,09,01,50,13.00
2019,07,09,01,51,13.00
2019,07,09,01,52,13.00
2019,07,09,01,53,13.00
2019,07,09,01,54,13.00
2019,07,09,01,55,12.90
2019,07,09,01,56,13.00
2019,07,09,01,57,12.90
2019,07,09,01,58,13.00
2019,07,09,01,59,13.00
2019,07,09,02,00,13.00
2019,07,09,02,01,13.00
2019,07,09,02,02,13.00
2019,07,09,02,03,13.00
2019,07,09,02,04,13.00
2019,07,09,02,05,13.00
2019,07,09,02,06,13.00
2019,07,09,02,07,13.00
2019,07,09,02,08,12.90
2019,07,09,02,09,12.90
2019,07,09,02,10,12.90
2019,07,09,02,11,12.90
2019,07,09,02,12,12.90
2019,07,09,02,13,12.90
2019,07,09,02,14,12.90
2019,07,09,02,15,12.90
2019,07,09,02,16,12.90
2019,07,09,02,17,12.90
2019,07,09,02,18,12.90
2019,07,09,02,19,12.80
2019,07,09,02,20,12.80
2019,07,09,02,21,12.80
2019,07,09,02,22,12.80
2019,07,09,02,23,12.80
2019,07,09,02,24,12.80
2019,07,09,02,25,12.80
2019,07,09,02,26,12.80
2019,07,09,02,27,12.80
2019,07,09,02,28,12.80
2019,07,09,02,29,12.80
2019,07,09,02,30,12.80
2019,07,09,02,31,12.80
2019,07,09,02,32,12.80
2019,07,09,02,33,12.80
2019,07,09,02,34,12.70
2019,07,09,02,35,12.70
2019,07,09,02,36,12.70
2019,07,09,02,37,12.70
2019,07,09,02,38,12.70
2019,07,09,02,39,12.70
2019,07,09,02,40,12.70
2019,07,09,02,41,12.70
2019,07,09,02,42,12.70
2019,07,09,02,43,12.70
2019,07,09,02,44,12.70
2019,07,09,02,45,12.60
2019,07,09,02,46,12.60
2019,07,09,02,47,12.60
2019,07,09,02,48,12.60
2019,07,09,02,49,12.60
2019,07,09,02,50,12.60
2019,07,09,02,51,12.60
2019,07,09,02,52,12.60
2019,07,09,02,53,12.60
2019,07,09,02,54,12.60
2019,07,09,02,55,12.50
2019,07,09,02,56,12.50
2019,07,09,02,57,12.50
2019,07,09,02,58,12.50
2019,07,09,02,59,12.50
2019,07,09,03,00,12.50
2019,07,09,03,01,12.50
2019,07,09,03,02,12.50
2019,07,09,03,03,12.40
2019,07,09,03,04,12.40
2019,07,09,03,05,12.40
2019,07,09,03,06,12.50
2019,07,09,03,07,12.50
2019,07,09,03,08,12.40
2019,07,09,03,09,12.40
2019,07,09,03,10,12.40
2019,07,09,03,11,12.40
2019,07,09,03,12,12.40
2019,07,09,03,13,12.40
2019,07,09,03,14,12.40
2019,07,09,03,15,12.40
2019,07,09,03,16,12.40
2019,07,09,03,17,12.40
2019,07,09,03,18,12.30
2019,07,09,03,19,12.30
2019,07,09,03,20,12.30
2019,07,09,03,21,12.30
2019,07,09,03,22,12.30
2019,07,09,03,23,12.30
2019,07,09,03,24,12.30
2019,07,09,03,25,12.30
2019,07,09,03,26,12.30
2019,07,09,03,27,12.30
2019,07,09,03,28,12.30
2019,07,09,03,29,12.30
2019,07,09,03,30,12.30
2019,07,09,03,31,12.30
2019,07,09,03,32,12.30
2019,07,09,03,33,12.30
2019,07,09,03,34,12.30
2019,07,09,03,35,12.30
2019,07,09,03,36,12.30
2019,07,09,03,37,12.30
2019,07,09,03,38,12.30
2019,07,09,03,39,12.30
2019,07,09,03,40,12.30
2019,07,09,03,41,12.30
2019,07,09,03,42,12.30
2019,07,09,03,43,12.30
2019,07,09,03,44,12.30
2019,07,09,03,45,12.30
2019,07,09,03,46,12.30
2019,07,09,03,47,12.30
2019,07,09,03,48,12.30
2019,07,09,03,49,12.30
2019,07,09,03,50,12.30
2019,07,09,03,51,12.30
2019,07,09,03,52,12.30
2019,07,09,03,53,12.20
2019,07,09,03,54,12.30
2019,07,09,03,55,12.20
2019,07,09,03,56,12.20
2019,07,09,03,57,12.20
2019,07,09,03,58,12.20
2019,07,09,03,59,12.20
2019,07,09,04,00,12.20
2019,07,09,04,01,12.20
2019,07,09,04,02,12.20
2019,07,09,04,03,12.20
2019,07,09,04,04,12.20
2019,07,09,04,05,12.20
2019,07,09,04,06,12.20
2019,07,09,04,07,12.20
2019,07,09,04,08,12.20
2019,07,09,04,09,12.20
2019,07,09,04,10,12.20
2019,07,09,04,11,12.20
2019,07,09,04,12,12.20
2019,07,09,04,13,12.10
2019,07,09,04,14,12.10
2019,07,09,04,15,12.10
2019,07,09,04,16,12.10
2019,07,09,04,17,12.10
2019,07,09,04,18,12.10
2019,07,09,04,19,12.10
2019,07,09,04,20,12.10
2019,07,09,04,21,12.00
2019,07,09,04,22,12.00
2019,07,09,04,23,12.00
2019,07,09,04,24,12.00
2019,07,09,04,25,12.00
2019,07,09,04,26,12.00
2019,07,09,04,27,12.00
2019,07,09,04,28,11.90
2019,07,09,04,29,11.90
2019,07,09,04,30,11.90
2019,07,09,04,31,11.90
2019,07,09,04,32,11.90
2019,07,09,04,33,11.90
2019,07,09,04,34,11.90
2019,07,09,04,35,11.90
2019,07,09,04,36,11.90
2019,07,09,04,37,11.90
2019,07,09,04,38,11.90
2019,07,09,04,39,11.90
2019,07,09,04,40,11.90
2019,07,09,04,41,11.80
2019,07,09,04,42,11.80
2019,07,09,04,43,11.80
2019,07,09,04,44,11.80
2019,07,09,04,45,11.80
2019,07,09,04,46,11.80
2019,07,09,04,47,11.80
2019,07,09,04,48,11.80
2019,07,09,04,49,11.80
2019,07,09,04,50,11.80
2019,07,09,04,51,11.80
2019,07,09,04,52,11.80
2019,07,09,04,53,11.70
2019,07,09,04,54,11.70
2019,07,09,04,55,11.70
2019,07,09,04,56,11.70
2019,07,09,04,57,11.70
2019,07,09,04,58,11.70
2019,07,09,04,59,11.70
2019,07,09,05,00,11.70
2019,07,09,05,01,11.70
2019,07,09,05,02,11.60
2019,07,09,05,03,11.60
2019,07,09,05,04,11.60
2019,07,09,05,05,11.70
2019,07,09,05,06,11.60
2019,07,09,05,07,11.60
2019,07,09,05,08,11.60
2019,07,09,05,09,11.60
2019,07,09,05,10,11.60
2019,07,09,05,11,11.60
2019,07,09,05,12,11.60
2019,07,09,05,13,11.60
2019,07,09,05,14,11.60
2019,07,09,05,15,11.60
2019,07,09,05,16,11.60
2019,07,09,05,17,11.60
2019,07,09,05,18,11.60
2019,07,09,05,19,11.60
2019,07,09,05,20,11.60
2019,07,09,05,21,11.60
2019,07,09,05,22,11.60
2019,07,09,05,23,11.60
2019,07,09,05,24,11.60
2019,07,09,05,25,11.60
2019,07,09,05,26,11.60
2019,07,09,05,27,11.60
2019,07,09,05,28,11.60
2019,07,09,05,29,11.70
2019,07,09,05,30,11.70
2019,07,09,05,31,11.70
2019,07,09,05,32,11.70
2019,07,09,05,33,11.70
2019,07,09,05,34,11.70
2019,07,09,05,35,11.70
2019,07,09,05,36,11.70
2019,07,09,05,37,11.70
2019,07,09,05,38,11.70
2019,07,09,05,39,11.70
2019,07,09,05,40,11.70
2019,07,09,05,41,11.70
2019,07,09,05,42,11.70
2019,07,09,05,43,11.70
2019,07,09,05,44,11.70
2019,07,09,05,45,11.70
2019,07,09,05,46,11.70
2019,07,09,05,47,11.80
2019,07,09,05,48,11.80
2019,07,09,05,49,11.80
2019,07,09,05,50,11.80
2019,07,09,05,51,11.80
2019,07,09,05,52,11.80
2019,07,09,05,53,11.80
2019,07,09,05,54,11.80
2019,07,09,05,55,11.80
2019,07,09,05,56,11.80
2019,07,09,05,57,11.80
2019,07,09,05,58,11.80
2019,07,09,05,59,11.80
2019,07,09,06,00,11.80
2019,07,09,06,01,11.80
2019,07,09,06,02,11.80
2019,07,09,06,03,11.80
2019,07,09,06,04,11.90
2019,07,09,06,05,11.90
2019,07,09,06,06,11.90
2019,07,09,06,07,11.90
2019,07,09,06,08,11.90
2019,07,09,06,09,11.90
2019,07,09,06,10,11.90
2019,07,09,06,11,11.90
2019,07,09,06,12,12.00
2019,07,09,06,13,12.00
2019,07,09,06,14,12.00
2019,07,09,06,15,12.00
2019,07,09,06,16,12.00
2019,07,09,06,17,12.00
2019,07,09,06,18,12.00
2019,07,09,06,19,12.00
2019,07,09,06,20,12.10
2019,07,09,06,21,12.10
2019,07,09,06,22,12.10
2019,07,09,06,23,12.10
2019,07,09,06,24,12.10
2019,07,09,06,25,12.10
2019,07,09,06,26,12.10
2019,07,09,06,27,12.10
2019,07,09,06,28,12.10
2019,07,09,06,29,12.20
2019,07,09,06,30,12.20
2019,07,09,06,31,12.20
2019,07,09,06,32,12.20
2019,07,09,06,33,12.20
2019,07,09,06,34,12.20
2019,07,09,06,35,12.20
2019,07,09,06,36,12.20
2019,07,09,06,37,12.20
2019,07,09,06,38,12.20
2019,07,09,06,39,12.20
2019,07,09,06,40,12.20
2019,07,09,06,41,12.30
2019,07,09,06,42,12.30
2019,07,09,06,43,12.30
2019,07,09,06,44,12.30
2019,07,09,06,45,12.30
2019,07,09,06,46,12.30
2019,07,09,06,47,12.30
2019,07,09,06,48,12.30
2019,07,09,06,49,12.40
2019,07,09,06,50,12.40
2019,07,09,06,51,12.40
2019,07,09,06,52,12.40
2019,07,09,06,53,12.50
2019,07,09,06,54,12.50
2019,07,09,06,55,12.50
2019,07,09,06,56,12.50
2019,07,09,06,57,12.60
2019,07,09,06,58,12.60
2019,07,09,06,59,12.60
2019,07,09,07,00,12.60
2019,07,09,07,01,12.70
2019,07,09,07,02,12.70
2019,07,09,07,03,12.70
2019,07,09,07,04,12.70
2019,07,09,07,05,12.80
2019,07,09,07,06,12.80
2019,07,09,07,07,12.80
2019,07,09,07,08,12.80
2019,07,09,07,09,12.80
2019,07,09,07,10,12.90
2019,07,09,07,11,12.90
2019,07,09,07,12,12.90
2019,07,09,07,13,12.90
2019,07,09,07,14,12.90
2019,07,09,07,15,13.00
2019,07,09,07,16,13.00
2019,07,09,07,17,13.00
2019,07,09,07,18,13.00
2019,07,09,07,19,13.10
2019,07,09,07,20,13.10
2019,07,09,07,21,13.10
2019,07,09,07,22,13.10
2019,07,09,07,23,13.10
2019,07,09,07,24,13.20
2019,07,09,07,25,13.20
2019,07,09,07,26,13.20
2019,07,09,07,27,13.20
2019,07,09,07,28,13.30
2019,07,09,07,29,13.30
2019,07,09,07,30,13.30
2019,07,09,07,31,13.40
2019,07,09,07,32,13.40
2019,07,09,07,33,13.40
2019,07,09,07,34,13.50
2019,07,09,07,35,13.50
2019,07,09,07,36,13.60
2019,07,09,07,37,13.60
2019,07,09,07,38,13.70
2019,07,09,07,39,13.70
2019,07,09,07,40,13.70
2019,07,09,07,41,13.80
2019,07,09,07,42,13.80
2019,07,09,07,43,13.80
2019,07,09,07,44,13.90
2019,07,09,07,45,13.90
2019,07,09,07,46,13.90
2019,07,09,07,47,13.90
2019,07,09,07,48,14.00
2019,07,09,07,49,14.00
2019,07,09,07,50,14.10
2019,07,09,07,51,14.10
2019,07,09,07,52,14.10
2019,07,09,07,53,14.10
2019,07,09,07,54,14.10
2019,07,09,07,55,14.10
2019,07,09,07,56,14.20
2019,07,09,07,57,14.20
2019,07,09,07,58,14.20
2019,07,09,07,59,14.20
2019,07,09,08,00,14.20
2019,07,09,08,01,14.20
2019,07,09,08,02,14.20
2019,07,09,08,03,14.30
2019,07,09,08,04,14.30
2019,07,09,08,05,14.30
2019,07,09,08,06,14.40
2019,07,09,08,07,14.40
2019,07,09,08,08,14.40
2019,07,09,08,09,14.50
2019,07,09,08,10,14.50
2019,07,09,08,11,14.60
2019,07,09,08,12,14.60
2019,07,09,08,13,14.70
2019,07,09,08,14,14.70
2019,07,09,08,15,14.70
2019,07,09,08,16,14.80
2019,07,09,08,17,14.80
2019,07,09,08,18,14.80
2019,07,09,08,19,14.80
2019,07,09,08,20,14.90
2019,07,09,08,21,14.90
2019,07,09,08,22,14.90
2019,07,09,08,23,15.00
2019,07,09,08,24,15.00
2019,07,09,08,25,15.00
2019,07,09,08,26,15.10
2019,07,09,08,27,15.10
2019,07,09,08,28,15.20
2019,07,09,08,29,15.20
2019,07,09,08,30,15.20
2019,07,09,08,31,15.30
2019,07,09,08,32,15.30
2019,07,09,08,33,15.30
2019,07,09,08,34,15.40
2019,07,09,08,35,15.40
2019,07,09,08,36,15.40
2019,07,09,08,37,15.50
2019,07,09,08,38,15.50
2019,07,09,08,39,15.50
2019,07,09,08,40,15.50
2019,07,09,08,41,15.50
2019,07,09,08,42,15.50
2019,07,09,08,43,15.50
2019,07,09,08,44,15.50
2019,07,09,08,45,15.50
2019,07,09,08,46,15.60
2019,07,09,08,47,15.60
2019,07,09,08,48,15.60
2019,07,09,08,49,15.60
2019,07,09,08,50,15.60
2019,07,09,08,51,15.60
2019,07,09,08,52,15.60
2019,07,09,08,53,15.70
2019,07,09,08,54,15.70
2019,07,09,08,55,15.70
2019,07,09,08,56,15.70
2019,07,09,08,57,15.70
2019,07,09,08,58,15.80
2019,07,09,08,59,15.80
2019,07,09,09,00,15.80
2019,07,09,09,01,15.90
2019,07,09,09,02,15.90
2019,07,09,09,03,15.90
2019,07,09,09,04,16.00
2019,07,09,09,05,16.00
2019,07,09,09,06,16.00
2019,07,09,09,07,16.10
2019,07,09,09,08,16.10
2019,07,09,09,09,16.10
2019,07,09,09,10,16.20
2019,07,09,09,11,16.20
2019,07,09,09,12,16.30
2019,07,09,09,13,16.30
2019,07,09,09,14,16.30
2019,07,09,09,15,16.30
2019,07,09,09,16,16.40
2019,07,09,09,17,16.40
2019,07,09,09,18,16.50
2019,07,09,09,19,16.50
2019,07,09,09,20,16.60
2019,07,09,09,21,16.60
2019,07,09,09,22,16.70
2019,07,09,09,23,16.70
2019,07,09,09,24,16.80
2019,07,09,09,25,16.80
2019,07,09,09,26,16.90
2019,07,09,09,27,16.90
2019,07,09,09,28,17.00
2019,07,09,09,29,17.10
2019,07,09,09,30,17.10
2019,07,09,09,31,17.20
2019,07,09,09,32,17.20
2019,07,09,09,33,17.30
2019,07,09,09,34,17.30
2019,07,09,09,35,17.40
2019,07,09,09,36,17.40
2019,07,09,09,37,17.50
2019,07,09,09,38,17.60
2019,07,09,09,39,17.60
2019,07,09,09,40,17.60
2019,07,09,09,41,17.70
2019,07,09,09,42,17.70
2019,07,09,09,43,17.70
2019,07,09,09,44,17.80
2019,07,09,09,45,17.80
2019,07,09,09,46,17.80
2019,07,09,09,47,17.80
2019,07,09,09,48,17.80
2019,07,09,09,49,17.80
2019,07,09,09,50,17.80
2019,07,09,09,51,17.90
2019,07,09,09,52,17.90
2019,07,09,09,53,17.90
2019,07,09,09,54,17.90
2019,07,09,09,55,17.90
2019,07,09,09,56,17.90
2019,07,09,09,57,18.00
2019,07,09,09,58,18.00
2019,07,09,09,59,18.00
2019,07,09,10,00,18.10
2019,07,09,10,01,18.10
2019,07,09,10,02,18.10
2019,07,09,10,03,18.20
2019,07,09,10,04,18.20
2019,07,09,10,05,18.20
2019,07,09,10,06,18.30
2019,07,09,10,07,18.30
2019,07,09,10,08,18.30
2019,07,09,10,09,18.30
2019,07,09,10,10,18.30
2019,07,09,10,11,18.30
2019,07,09,10,12,18.40
2019,07,09,10,13,18.40
2019,07,09,10,14,18.40
2019,07,09,10,15,18.40
2019,07,09,10,16,18.40
2019,07,09,10,17,18.40
2019,07,09,10,18,18.50
2019,07,09,10,19,18.50
2019,07,09,10,20,18.50
2019,07,09,10,21,18.60
2019,07,09,10,22,18.60
2019,07,09,10,23,18.60
2019,07,09,10,24,18.60
2019,07,09,10,25,18.60
2019,07,09,10,26,18.70
2019,07,09,10,27,18.70
2019,07,09,10,28,18.70
2019,07,09,10,29,18.70
2019,07,09,10,30,18.70
2019,07,09,10,31,18.70
2019,07,09,10,32,18.70
2019,07,09,10,33,18.70
2019,07,09,10,34,18.70
2019,07,09,10,35,18.70
2019,07,09,10,36,18.70
2019,07,09,10,37,18.70
2019,07,09,10,38,18.80
2019,07,09,10,39,18.80
2019,07,09,10,40,18.90
2019,07,09,10,41,18.90
2019,07,09,10,42,19.00
2019,07,09,10,43,19.00
2019,07,09,10,44,19.10
2019,07,09,10,45,19.10
2019,07,09,10,46,19.20
2019,07,09,10,47,19.20
2019,07,09,10,48,19.20
2019,07,09,10,49,19.30
2019,07,09,10,50,19.30
2019,07,09,10,51,19.30
2019,07,09,10,52,19.30
2019,07,09,10,53,19.40
2019,07,09,10,54,19.40
2019,07,09,10,55,19.40
2019,07,09,10,56,19.40
2019,07,09,10,57,19.40
2019,07,09,10,58,19.40
2019,07,09,10,59,19.40
2019,07,09,11,00,19.40
2019,07,09,11,01,19.40
2019,07,09,11,02,19.40
2019,07,09,11,03,19.40
2019,07,09,11,04,19.30
2019,07,09,11,05,19.30
2019,07,09,11,06,19.30
2019,07,09,11,07,19.30
2019,07,09,11,08,19.30
2019,07,09,11,09,19.30
2019,07,09,11,10,19.30
2019,07,09,11,11,19.30
2019,07,09,11,12,19.30
2019,07,09,11,13,19.30
2019,07,09,11,14,19.30
2019,07,09,11,15,19.30
2019,07,09,11,16,19.30
2019,07,09,11,17,19.30
2019,07,09,11,18,19.30
2019,07,09,11,19,19.30
2019,07,09,11,20,19.20
2019,07,09,11,21,19.20
2019,07,09,11,22,19.20
2019,07,09,11,23,19.10
2019,07,09,11,24,19.10
2019,07,09,11,25,19.10
2019,07,09,11,26,19.10
2019,07,09,11,27,19.10
2019,07,09,11,28,19.00
2019,07,09,11,29,19.00
2019,07,09,11,30,19.00
2019,07,09,11,31,19.00
2019,07,09,11,32,19.00
2019,07,09,11,33,19.00
2019,07,09,11,34,19.00
2019,07,09,11,35,19.00
2019,07,09,11,36,19.00
2019,07,09,11,37,19.00
2019,07,09,11,38,19.00
2019,07,09,11,39,19.00
2019,07,09,11,40,19.00
2019,07,09,11,41,19.00
2019,07,09,11,42,19.00
2019,07,09,11,43,19.00
2019,07,09,11,44,19.10
2019,07,09,11,45,19.00
2019,07,09,11,46,19.00
2019,07,09,11,47,19.00
2019,07,09,11,48,19.00
2019,07,09,11,49,19.00
2019,07,09,11,50,19.00
2019,07,09,11,51,19.00
2019,07,09,11,52,19.10
2019,07,09,11,53,19.10
2019,07,09,11,54,19.10
2019,07,09,11,55,19.20
2019,07,09,11,56,19.20
2019,07,09,11,57,19.20
2019,07,09,11,58,19.30
2019,07,09,11,59,19.30
2019,07,09,12,00,19.40
2019,07,09,12,01,19.40
2019,07,09,12,02,19.40
2019,07,09,12,03,19.40
2019,07,09,12,04,19.40
2019,07,09,12,05,19.40
2019,07,09,12,06,19.40
2019,07,09,12,07,19.40
2019,07,09,12,08,19.40
2019,07,09,12,09,19.40
2019,07,09,12,10,19.40
2019,07,09,12,11,19.40
2019,07,09,12,12,19.40
2019,07,09,12,13,19.40
2019,07,09,12,14,19.40
2019,07,09,12,15,19.40
2019,07,09,12,16,19.50
2019,07,09,12,17,19.40
2019,07,09,12,18,19.40
2019,07,09,12,19,19.40
2019,07,09,12,20,19.40
2019,07,09,12,21,19.30
2019,07,09,12,22,19.30
2019,07,09,12,23,19.20
2019,07,09,12,24,19.20
2019,07,09,12,25,19.10
2019,07,09,12,26,19.10
2019,07,09,12,27,19.10
2019,07,09,12,28,19.10
2019,07,09,12,29,19.00
2019,07,09,12,30,19.00
2019,07,09,12,31,19.00
2019,07,09,12,32,19.10
2019,07,09,12,33,19.10
2019,07,09,12,34,19.10
2019,07,09,12,35,19.20
2019,07,09,12,36,19.20
2019,07,09,12,37,19.20
2019,07,09,12,38,19.20
2019,07,09,12,39,19.20
2019,07,09,12,40,19.20
2019,07,09,12,41,19.20
2019,07,09,12,42,19.20
2019,07,09,12,43,19.20
2019,07,09,12,44,19.20
2019,07,09,12,45,19.20
2019,07,09,12,46,19.20
2019,07,09,12,47,19.20
2019,07,09,12,48,19.10
2019,07,09,12,49,19.10
2019,07,09,12,50,19.10
2019,07,09,12,51,19.10
2019,07,09,12,52,19.20
2019,07,09,12,53,19.20
2019,07,09,12,54,19.20
2019,07,09,12,55,19.30
2019,07,09,12,56,19.30
2019,07,09,12,57,19.30
2019,07,09,12,58,19.30
2019,07,09,12,59,19.30
2019,07,09,13,00,19.30
2019,07,09,13,01,19.30
2019,07,09,13,02,19.30
2019,07,09,13,03,19.30
2019,07,09,13,04,19.30
2019,07,09,13,05,19.20
2019,07,09,13,06,19.30
2019,07,09,13,07,19.30
2019,07,09,13,08,19.30
2019,07,09,13,09,19.30
2019,07,09,13,10,19.30
2019,07,09,13,11,19.30
2019,07,09,13,12,19.30
2019,07,09,13,13,19.40
2019,07,09,13,14,19.40
2019,07,09,13,15,19.40
2019,07,09,13,16,19.40
2019,07,09,13,17,19.40
2019,07,09,13,18,19.40
2019,07,09,13,19,19.40
2019,07,09,13,20,19.50
2019,07,09,13,21,19.50
2019,07,09,13,22,19.50
2019,07,09,13,23,19.60
2019,07,09,13,24,19.60
2019,07,09,13,25,19.60
2019,07,09,13,26,19.60
2019,07,09,13,27,19.70
2019,07,09,13,28,19.70
2019,07,09,13,29,19.70
2019,07,09,13,30,19.70
2019,07,09,13,31,19.70
2019,07,09,13,32,19.60
2019,07,09,13,33,19.60
2019,07,09,13,34,19.60
2019,07,09,13,35,19.60
2019,07,09,13,36,19.60
2019,07,09,13,37,19.60
2019,07,09,13,38,19.60
2019,07,09,13,39,19.60
2019,07,09,13,40,19.70
2019,07,09,13,41,19.70
2019,07,09,13,42,19.70
2019,07,09,13,43,19.70
2019,07,09,13,44,19.70
2019,07,09,13,45,19.80
2019,07,09,13,46,19.80
2019,07,09,13,47,19.80
2019,07,09,13,48,19.80
2019,07,09,13,49,19.80
2019,07,09,13,50,19.80
2019,07,09,13,51,19.80
2019,07,09,13,52,19.80
2019,07,09,13,53,19.80
2019,07,09,13,54,19.90
2019,07,09,13,55,19.90
2019,07,09,13,56,19.90
2019,07,09,13,57,19.90
2019,07,09,13,58,19.90
2019,07,09,13,59,20.00
2019,07,09,14,00,20.00
2019,07,09,14,01,20.10
2019,07,09,14,02,20.10
2019,07,09,14,03,20.10
2019,07,09,14,04,20.20
2019,07,09,14,05,20.20
2019,07,09,14,06,20.20
2019,07,09,14,07,20.20
2019,07,09,14,08,20.30
2019,07,09,14,09,20.30
2019,07,09,14,10,20.30
2019,07,09,14,11,20.30
2019,07,09,14,12,20.40
2019,07,09,14,13,20.40
2019,07,09,14,14,20.40
2019,07,09,14,15,20.40
2019,07,09,14,16,20.40
2019,07,09,14,17,20.40
2019,07,09,14,18,20.40
2019,07,09,14,19,20.50
2019,07,09,14,20,20.50
2019,07,09,14,21,20.50
2019,07,09,14,22,20.50
2019,07,09,14,23,20.50
2019,07,09,14,24,20.50
2019,07,09,14,25,20.50
2019,07,09,14,26,20.60
2019,07,09,14,27,20.60
2019,07,09,14,28,20.60
2019,07,09,14,29,20.60
2019,07,09,14,30,20.60
2019,07,09,14,31,20.60
2019,07,09,14,32,20.50
2019,07,09,14,33,20.50
2019,07,09,14,34,20.50
2019,07,09,14,35,20.40
2019,07,09,14,36,20.40
2019,07,09,14,37,20.40
2019,07,09,14,38,20.30
2019,07,09,14,39,20.30
2019,07,09,14,40,20.30
2019,07,09,14,41,20.30
2019,07,09,14,42,20.30
2019,07,09,14,43,20.20
2019,07,09,14,44,20.20
2019,07,09,14,45,20.20
2019,07,09,14,46,20.20
2019,07,09,14,47,20.10
2019,07,09,14,48,20.10
2019,07,09,14,49,20.10
2019,07,09,14,50,20.10
2019,07,09,14,51,20.10
2019,07,09,14,52,20.10
2019,07,09,14,53,20.10
2019,07,09,14,54,20.10
2019,07,09,14,55,20.10
2019,07,09,14,56,20.20
2019,07,09,14,57,20.20
2019,07,09,14,58,20.20
2019,07,09,14,59,20.20
2019,07,09,15,00,20.20
2019,07,09,15,01,20.20
2019,07,09,15,02,20.20
2019,07,09,15,03,20.30
2019,07,09,15,04,20.30
2019,07,09,15,05,20.30
2019,07,09,15,06,20.30
2019,07,09,15,07,20.30
2019,07,09,15,08,20.30
2019,07,09,15,09,20.30
2019,07,09,15,10,20.30
2019,07,09,15,11,20.30
2019,07,09,15,12,20.30
2019,07,09,15,13,20.40
2019,07,09,15,14,20.40
2019,07,09,15,15,20.40
2019,07,09,15,16,20.40
2019,07,09,15,17,20.40
2019,07,09,15,18,20.30
2019,07,09,15,19,20.30
2019,07,09,15,20,20.30
2019,07,09,15,21,20.30
2019,07,09,15,22,20.30
2019,07,09,15,23,20.20
2019,07,09,15,24,20.20
2019,07,09,15,25,20.10
2019,07,09,15,26,20.10
2019,07,09,15,27,20.00
2019,07,09,15,28,20.00
2019,07,09,15,29,20.00
2019,07,09,15,30,19.90
2019,07,09,15,31,19.90
2019,07,09,15,32,19.90
2019,07,09,15,33,19.90
2019,07,09,15,34,19.80
2019,07,09,15,35,19.80
2019,07,09,15,36,19.80
2019,07,09,15,37,19.80
2019,07,09,15,38,19.70
2019,07,09,15,39,19.70
2019,07,09,15,40,19.70
2019,07,09,15,41,19.60
2019,07,09,15,42,19.60
2019,07,09,15,43,19.60
2019,07,09,15,44,19.60
2019,07,09,15,45,19.60
2019,07,09,15,46,19.60
2019,07,09,15,47,19.60
2019,07,09,15,48,19.70
2019,07,09,15,49,19.70
2019,07,09,15,50,19.70
2019,07,09,15,51,19.70
2019,07,09,15,52,19.70
2019,07,09,15,53,19.70
2019,07,09,15,54,19.70
2019,07,09,15,55,19.70
2019,07,09,15,56,19.70
2019,07,09,15,57,19.70
2019,07,09,15,58,19.70
2019,07,09,15,59,19.70
2019,07,09,16,00,19.70
2019,07,09,16,01,19.70
2019,07,09,16,02,19.70
2019,07,09,16,03,19.70
2019,07,09,16,04,19.70
2019,07,09,16,05,19.70
2019,07,09,16,06,19.70
2019,07,09,16,07,19.70
2019,07,09,16,08,19.70
2019,07,09,16,09,19.70
2019,07,09,16,10,19.70
2019,07,09,16,11,19.70
2019,07,09,16,12,19.70
2019,07,09,16,13,19.70
2019,07,09,16,14,19.70
2019,07,09,16,15,19.70
2019,07,09,16,16,19.70
2019,07,09,16,17,19.60
2019,07,09,16,18,19.60
2019,07,09,16,19,19.60
2019,07,09,16,20,19.50
2019,07,09,16,21,19.50
2019,07,09,16,22,19.50
2019,07,09,16,23,19.50
2019,07,09,16,24,19.40
2019,07,09,16,25,19.40
2019,07,09,16,26,19.40
2019,07,09,16,27,19.40
2019,07,09,16,28,19.30
2019,07,09,16,29,19.30
2019,07,09,16,30,19.30
2019,07,09,16,31,19.30
2019,07,09,16,32,19.30
2019,07,09,16,33,19.30
2019,07,09,16,34,19.30
2019,07,09,16,35,19.40
2019,07,09,16,36,19.40
2019,07,09,16,37,19.40
2019,07,09,16,38,19.40
2019,07,09,16,39,19.50
2019,07,09,16,40,19.50
2019,07,09,16,41,19.50
2019,07,09,16,42,19.50
2019,07,09,16,43,19.60
2019,07,09,16,44,19.60
2019,07,09,16,45,19.60
2019,07,09,16,46,19.60
2019,07,09,16,47,19.60
2019,07,09,16,48,19.60
2019,07,09,16,49,19.50
2019,07,09,16,50,19.50
2019,07,09,16,51,19.50
2019,07,09,16,52,19.60
2019,07,09,16,53,19.60
2019,07,09,16,54,19.60
2019,07,09,16,55,19.60
2019,07,09,16,56,19.70
2019,07,09,16,57,19.70
2019,07,09,16,58,19.70
2019,07,09,16,59,19.80
2019,07,09,17,00,19.80
2019,07,09,17,01,19.90
2019,07,09,17,02,20.00
2019,07,09,17,03,20.00
2019,07,09,17,04,20.10
2019,07,09,17,05,20.10
2019,07,09,17,06,20.20
2019,07,09,17,07,20.20
2019,07,09,17,08,20.30
2019,07,09,17,09,20.30
2019,07,09,17,10,20.30
2019,07,09,17,11,20.30
2019,07,09,17,12,20.40
2019,07,09,17,13,20.40
2019,07,09,17,14,20.40
2019,07,09,17,15,20.40
2019,07,09,17,16,20.40
2019,07,09,17,17,20.40
2019,07,09,17,18,20.30
2019,07,09,17,19,20.30